Time,TemperatureF,DewpointF,PressureIn,WindDirection,WindDirectionDegrees,WindSpeedMPH,WindSpeedGustMPH,Humidity,HourlyPrecipIn,Conditions,Clouds,dailyrainin,SoftwareType,DateUTC
2013-07-23 00:00:00,76.0,74.0,-100.00,South,171,3.0,7.0,93,0.00,,,-99.99,,2013-07-23 04:00:00,
2013-07-23 00:32:00,76.0,74.0,-100.00,South,171,3.0,7.0,93,0.00,,,-99.99,,2013-07-23 04:32:00,
2013-07-23 00:43:00,76.0,74.0,-100.00,South,171,3.0,7.0,93,0.00,,,-99.99,,2013-07-23 04:43:00,
2013-07-23 00:53:00,76.0,74.0,-100.00,South,171,3.0,7.0,93,0.00,,,-99.99,,2013-07-23 04:53:00,
2013-07-23 01:00:00,76.0,74.0,-100.00,South,169,4.0,9.0,92,0.00,,,-99.99,,2013-07-23 05:00:00,
2013-07-23 01:33:00,76.0,74.0,-100.00,South,169,4.0,9.0,92,0.00,,,-99.99,,2013-07-23 05:33:00,
2013-07-23 01:44:00,76.0,74.0,-100.00,South,169,4.0,9.0,92,0.00,,,-99.99,,2013-07-23 05:44:00,
2013-07-23 01:52:00,76.0,74.0,-100.00,South,169,4.0,9.0,92,0.00,,,-99.99,,2013-07-23 05:52:00,
2013-07-23 02:00:00,76.0,74.0,-100.00,South,180,5.0,9.0,92,0.00,,,-99.99,,2013-07-23 06:00:00,
2013-07-23 02:33:00,76.0,74.0,-100.00,South,180,5.0,9.0,92,0.00,,,-99.99,,2013-07-23 06:33:00,
2013-07-23 02:42:00,76.0,74.0,-100.00,South,180,5.0,9.0,92,0.00,,,-99.99,,2013-07-23 06:42:00,
2013-07-23 02:52:00,76.0,74.0,-100.00,South,180,5.0,9.0,92,0.00,,,-99.99,,2013-07-23 06:52:00,
2013-07-23 03:00:00,77.0,74.0,-100.00,South,172,4.0,11.0,92,0.01,,,-99.99,,2013-07-23 07:00:00,
2013-07-23 03:33:00,77.0,74.0,-100.00,South,172,4.0,11.0,92,0.01,,,-99.99,,2013-07-23 07:33:00,
2013-07-23 03:42:00,77.0,74.0,-100.00,South,172,4.0,11.0,92,0.01,,,-99.99,,2013-07-23 07:42:00,
2013-07-23 03:52:00,77.0,74.0,-100.00,South,172,4.0,11.0,92,0.01,,,-99.99,,2013-07-23 07:52:00,
2013-07-23 04:00:00,76.0,74.0,-100.00,SSE,163,4.0,9.0,93,0.04,,,-99.99,,2013-07-23 08:00:00,
2013-07-23 04:43:00,76.0,74.0,-100.00,SSE,163,4.0,9.0,93,0.04,,,-99.99,,2013-07-23 08:43:00,
2013-07-23 04:52:00,76.0,74.0,-100.00,SSE,163,4.0,9.0,93,0.04,,,-99.99,,2013-07-23 08:52:00,
2013-07-23 05:00:00,72.0,69.0,-100.00,WSW,253,0.0,13.0,92,0.04,,,-99.99,,2013-07-23 09:00:00,
2013-07-23 05:43:00,72.0,69.0,-100.00,WSW,253,0.0,13.0,92,0.04,,,-99.99,,2013-07-23 09:43:00,
2013-07-23 05:53:00,72.0,69.0,-100.00,WSW,253,0.0,13.0,92,0.04,,,-99.99,,2013-07-23 09:53:00,
2013-07-23 06:00:00,72.0,70.0,-100.00,SW,214,2.0,5.0,93,0.08,,,-99.99,,2013-07-23 10:00:00,
2013-07-23 06:32:00,72.0,70.0,-100.00,SW,214,2.0,5.0,93,0.08,,,-99.99,,2013-07-23 10:32:00,
2013-07-23 06:44:00,72.0,70.0,-100.00,SW,214,2.0,5.0,93,0.08,,,-99.99,,2013-07-23 10:44:00,
2013-07-23 06:52:00,72.0,70.0,-100.00,SW,214,2.0,5.0,93,0.08,,,-99.99,,2013-07-23 10:52:00,
2013-07-23 07:00:00,73.0,70.0,-100.00,West,264,1.0,5.0,92,0.06,,,-99.99,,2013-07-23 11:00:00,
2013-07-23 07:43:00,73.0,70.0,-100.00,West,264,1.0,5.0,92,0.06,,,-99.99,,2013-07-23 11:43:00,
2013-07-23 07:52:00,73.0,70.0,-100.00,West,264,1.0,5.0,92,0.06,,,-99.99,,2013-07-23 11:52:00,
2013-07-23 08:00:00,75.0,71.0,-100.00,WSW,250,7.0,7.0,89,0.05,,,-99.99,,2013-07-23 12:00:00,
2013-07-23 08:33:00,75.0,71.0,-100.00,WSW,250,7.0,7.0,89,0.05,,,-99.99,,2013-07-23 12:33:00,
2013-07-23 08:43:00,75.0,71.0,-100.00,WSW,250,7.0,7.0,89,0.05,,,-99.99,,2013-07-23 12:43:00,
2013-07-23 09:00:00,77.0,71.0,-100.00,NW,306,5.0,13.0,83,0.04,,,-99.99,,2013-07-23 13:00:00,
2013-07-23 09:32:00,77.0,71.0,-100.00,NW,306,5.0,13.0,83,0.04,,,-99.99,,2013-07-23 13:32:00,
2013-07-23 09:43:00,77.0,71.0,-100.00,NW,306,5.0,13.0,83,0.04,,,-99.99,,2013-07-23 13:43:00,
2013-07-23 09:52:00,77.0,71.0,-100.00,NW,306,5.0,13.0,83,0.04,,,-99.99,,2013-07-23 13:52:00,
2013-07-23 10:00:00,78.0,71.0,-100.00,West,266,8.0,14.0,80,0.03,,,-99.99,,2013-07-23 14:00:00,
2013-07-23 10:44:00,78.0,71.0,-100.00,West,266,8.0,14.0,80,0.03,,,-99.99,,2013-07-23 14:44:00,
2013-07-23 10:54:00,78.0,71.0,-100.00,West,266,8.0,14.0,80,0.03,,,-99.99,,2013-07-23 14:54:00,
2013-07-23 11:00:00,81.0,71.0,-100.00,West,264,1.0,15.0,73,0.02,,,-99.99,,2013-07-23 15:00:00,
2013-07-23 11:32:00,81.0,71.0,-100.00,West,264,1.0,15.0,73,0.02,,,-99.99,,2013-07-23 15:32:00,
2013-07-23 11:43:00,81.0,71.0,-100.00,West,264,1.0,15.0,73,0.02,,,-99.99,,2013-07-23 15:43:00,
2013-07-23 11:52:00,81.0,71.0,-100.00,West,264,1.0,15.0,73,0.02,,,-99.99,,2013-07-23 15:52:00,
2013-07-23 12:00:00,82.0,71.0,-100.00,SW,231,5.0,13.0,69,0.00,,,-99.99,,2013-07-23 16:00:00,
2013-07-23 12:43:00,82.0,71.0,-100.00,SW,231,5.0,13.0,69,0.00,,,-99.99,,2013-07-23 16:43:00,
2013-07-23 12:52:00,82.0,71.0,-100.00,SW,231,5.0,13.0,69,0.00,,,-99.99,,2013-07-23 16:52:00,
2013-07-23 13:00:00,84.0,71.0,-100.00,WNW,285,4.0,13.0,65,0.00,,,-99.99,,2013-07-23 17:00:00,
2013-07-23 13:32:00,84.0,71.0,-100.00,WNW,285,4.0,13.0,65,0.00,,,-99.99,,2013-07-23 17:32:00,
2013-07-23 13:42:00,84.0,71.0,-100.00,WNW,285,4.0,13.0,65,0.00,,,-99.99,,2013-07-23 17:42:00,
2013-07-23 13:57:00,84.0,71.0,-100.00,WNW,285,4.0,13.0,65,0.00,,,-99.99,,2013-07-23 17:57:00,
2013-07-23 14:00:00,85.0,70.0,-100.00,WSW,256,6.0,14.0,61,0.00,,,-99.99,,2013-07-23 18:00:00,
2013-07-23 14:36:00,85.0,70.0,-100.00,WSW,256,6.0,14.0,61,0.00,,,-99.99,,2013-07-23 18:36:00,
2013-07-23 14:49:00,85.0,70.0,-100.00,WSW,256,6.0,14.0,61,0.00,,,-99.99,,2013-07-23 18:49:00,
2013-07-23 14:58:00,85.0,70.0,-100.00,WSW,256,6.0,14.0,61,0.00,,,-99.99,,2013-07-23 18:58:00,
2013-07-23 15:00:00,86.0,69.0,-100.00,WNW,296,7.0,17.0,57,0.00,,,-99.99,,2013-07-23 19:00:00,
2013-07-23 15:35:00,86.0,69.0,-100.00,WNW,296,7.0,17.0,57,0.00,,,-99.99,,2013-07-23 19:35:00,
2013-07-23 15:49:00,86.0,69.0,-100.00,WNW,296,7.0,17.0,57,0.00,,,-99.99,,2013-07-23 19:49:00,
2013-07-23 15:56:00,86.0,69.0,-100.00,WNW,296,7.0,17.0,57,0.00,,,-99.99,,2013-07-23 19:56:00,
2013-07-23 16:00:00,85.0,70.0,-100.00,SW,234,7.0,11.0,61,0.00,,,-99.99,,2013-07-23 20:00:00,
2013-07-23 16:35:00,85.0,70.0,-100.00,SW,234,7.0,11.0,61,0.00,,,-99.99,,2013-07-23 20:35:00,
2013-07-23 16:48:00,85.0,70.0,-100.00,SW,234,7.0,11.0,61,0.00,,,-99.99,,2013-07-23 20:48:00,
2013-07-23 16:59:00,85.0,70.0,-100.00,SW,234,7.0,11.0,61,0.00,,,-99.99,,2013-07-23 20:59:00,
2013-07-23 17:00:00,87.0,70.0,-100.00,WSW,237,5.0,14.0,57,0.00,,,-99.99,,2013-07-23 21:00:00,
2013-07-23 17:38:00,87.0,70.0,-100.00,WSW,237,5.0,14.0,57,0.00,,,-99.99,,2013-07-23 21:38:00,
2013-07-23 17:48:00,87.0,70.0,-100.00,WSW,237,5.0,14.0,57,0.00,,,-99.99,,2013-07-23 21:48:00,
2013-07-23 17:57:00,87.0,70.0,-100.00,WSW,237,5.0,14.0,57,0.00,,,-99.99,,2013-07-23 21:57:00,
2013-07-23 18:00:00,82.0,66.0,-100.00,WSW,250,4.0,16.0,58,0.00,,,-99.99,,2013-07-23 22:00:00,
2013-07-23 19:00:00,82.0,70.0,-100.00,West,263,8.0,16.0,68,0.00,,,-99.99,,2013-07-23 23:00:00,
2013-07-23 20:00:00,81.0,70.0,-100.00,WSW,250,6.0,11.0,69,0.00,,,-99.99,,2013-07-24 00:00:00,
2013-07-23 20:34:00,81.0,70.0,-100.00,WSW,250,6.0,11.0,69,0.00,,,-99.99,,2013-07-24 00:34:00,
2013-07-23 20:50:00,81.0,70.0,-100.00,WSW,250,6.0,11.0,69,0.00,,,-99.99,,2013-07-24 00:50:00,
2013-07-23 20:58:00,81.0,70.0,-100.00,WSW,250,6.0,11.0,69,0.00,,,-99.99,,2013-07-24 00:58:00,
2013-07-23 21:00:00,79.0,71.0,-100.00,WNW,295,6.0,10.0,75,0.00,,,-99.99,,2013-07-24 01:00:00,
2013-07-23 21:48:00,79.0,71.0,-100.00,WNW,295,6.0,10.0,75,0.00,,,-99.99,,2013-07-24 01:48:00,
2013-07-23 22:00:00,78.0,71.0,-100.00,WSW,242,3.0,8.0,79,0.00,,,-99.99,,2013-07-24 02:00:00,
2013-07-23 22:40:00,78.0,71.0,-100.00,WSW,242,3.0,8.0,79,0.00,,,-99.99,,2013-07-24 02:40:00,
2013-07-23 22:57:00,78.0,71.0,-100.00,WSW,242,3.0,8.0,79,0.00,,,-99.99,,2013-07-24 02:57:00,
2013-07-23 23:00:00,77.0,71.0,-100.00,West,263,4.0,9.0,80,0.00,,,-99.99,,2013-07-24 03:00:00,
2013-07-23 23:46:00,77.0,71.0,-100.00,West,263,4.0,9.0,80,0.00,,,-99.99,,2013-07-24 03:46:00,